Temp
10 10 10 9 8 8 7 7 6 5 4 5 4 3 3 2 2 1 0 -0 -0 -1
10 9 9 8 7 7 6 6 5 4 4 3 2 2 2 1 1 0 -0 -1 -1 -1
9 9 8 8 7 6 5 5 3 3 3 3 2 2 2 1 0 -0 -1 -1 -1 -2
10 9 8 8 7 6 5 4 3 3 3 2 2 1 1 0 -0 -1 -1 -1 -2 -3
10 9 8 7 6 5 4 3 3 2 2 2 2 1 1 0 -1 -1 -1 -2 -3 -3
9 8 7 7 6 5 3 3 2 2 2 1 1 1 0 -0 -1 -1 -2 -2 -3 -4
9 8 7 6 4 3 2 2 2 1 1 1 0 0 -0 -1 -1 -1 -2 -3 -4 -4
7 6 5 3 1 2 1 1 -0 1 1 1 0 0 -0 -1 -1 -2 -2 -3 -4 -4
5 4 3 2 0 -0 1 -0 -1 0 0 -0 -0 -1 -1 -1 -2 -2 -3 -4 -4 -4
5 4 3 1 -1 -1 -2 -2 -1 -1 -1 -0 -1 -1 -1 -2 -2 -3 -3 -4 -5 -5
3 2 -0 -2 -2 -1 -0 -1 -1 -0 -1 -2 -2 -2 -2 -2 -3 -3 -4 -5 -5 -6
2 0 -2 -1 -1 -0 -0 -1 -1 -1 -2 -2 -2 -2 -3 -4 -4 -4 -4 -5 -6 -7
-1 -1 -0 -0 -1 -1 -1 -1 -1 -2 -3 -3 -3 -3 -4 -4 -5 -5 -5 -6 -6 -7
-0 -0 -1 -1 -1 -1 -2 -2 -2 -3 -3 -3 -3 -4 -4 -5 -5 -5 -6 -6 -7 -7
Height
1538 1540 1542 1544 1545 1546 1546 1546 1549 1552 1547 1545 1542 1542 1541 1540 1537 1536 1534 1534 1533 1530
1535 1538 1540 1543 1545 1545 1545 1546 1543 1543 1544 1542 1542 1538 1537 1536 1535 1533 1532 1531 1528 1524
1533 1536 1538 1539 1540 1541 1542 1541 1543 1539 1541 1538 1536 1535 1533 1532 1531 1530 1529 1527 1524 1520
1529 1532 1534 1535 1535 1537 1536 1535 1535 1532 1532 1534 1531 1529 1529 1527 1526 1525 1524 1522 1520 1517
1523 1527 1528 1530 1530 1529 1528 1529 1529 1529 1529 1529 1528 1526 1525 1522 1522 1522 1521 1518 1516 1514
1518 1519 1521 1521 1520 1519 1521 1524 1524 1526 1526 1525 1523 1522 1520 1518 1517 1515 1515 1513 1511 1510
1507 1511 1513 1511 1511 1513 1518 1518 1519 1519 1520 1521 1519 1517 1515 1514 1513 1511 1510 1508 1507 1505
1510 1509 1505 1507 1515 1510 1514 1513 1515 1516 1515 1514 1513 1513 1511 1510 1508 1507 1504 1503 1502 1500
1507 1510 1510 1509 1508 1510 1510 1508 1509 1511 1510 1509 1508 1506 1506 1504 1502 1501 1500 1499 1497 1495
1501 1500 1501 1502 1503 1501 1503 1506 1507 1506 1504 1502 1501 1500 1499 1498 1497 1496 1495 1493 1491 1489
1500 1499 1499 1498 1498 1500 1500 1500 1500 1499 1498 1496 1495 1495 1494 1493 1491 1490 1489 1487 1485 1483
1493 1492 1495 1495 1498 1497 1497 1496 1495 1494 1492 1492 1491 1490 1489 1487 1486 1484 1483 1481 1479 1477
1491 1494 1496 1495 1494 1494 1493 1493 1491 1489 1489 1487 1486 1485 1484 1482 1480 1479 1478 1476 1474 1472
1493 1493 1492 1492 1492 1492 1490 1488 1487 1485 1484 1482 1480 1479 1478 1476 1473 1473 1472 1470 1469 1467
Wind_Speed
32 33 30 30 27 22 19 19 19 17 19 20 17 18 17 18 16 15 16 19 22 24
30 28 26 24 20 18 17 15 17 16 15 19 22 18 18 20 18 20 20 23 27 30
27 26 24 23 19 16 16 16 14 14 18 18 20 22 21 23 20 21 24 28 30 30
27 24 22 19 18 17 16 14 19 15 14 19 23 22 23 25 22 24 25 28 28 22
29 26 25 21 19 21 20 21 12 13 17 20 21 22 25 25 23 25 28 26 23 20
29 28 23 24 27 25 20 13 10 15 17 18 22 23 25 21 24 26 26 25 21 23
36 29 27 28 25 15 11 10 9 14 16 22 21 24 22 22 25 26 24 23 21 22
25 22 26 22 14 14 12 8 8 14 17 22 20 26 24 24 25 26 25 22 23 22
18 18 14 12 12 12 14 14 7 17 22 21 25 23 26 24 25 25 25 23 23 22
23 22 22 16 13 10 1 7 16 20 20 25 24 24 25 23 24 24 22 24 24 22
19 15 13 11 5 9 13 13 10 20 25 23 21 21 23 23 23 23 24 24 24 23
21 20 6 2 15 18 8 15 20 22 23 19 19 19 20 21 23 24 24 23 23 22
17 4 17 18 8 10 15 18 18 16 16 21 23 23 21 22 24 24 22 22 22 21
12 16 11 10 12 16 16 15 17 20 21 24 21 22 24 22 24 22 22 22 21 20
Wind_Direction
223 225 224 220 215 219 226 230 245 274 277 282 296 308 312 313 312 312 312 304 303 303
212 207 203 206 217 227 225 250 267 279 293 308 310 314 321 317 310 311 308 303 304 305
208 209 218 227 229 230 250 272 273 291 300 308 306 313 317 317 306 306 302 306 314 312
226 225 234 236 239 245 257 257 274 311 294 294 305 305 308 311 300 296 300 308 315 308
236 240 241 235 238 254 245 265 291 273 279 290 294 294 298 305 296 297 306 306 310 302
235 235 230 233 244 248 255 257 257 278 281 286 291 292 304 302 296 299 305 310 301 304
231 226 233 232 235 252 214 242 271 289 290 298 294 301 304 298 295 298 301 304 296 297
218 215 213 217 240 197 236 243 309 298 301 294 303 308 293 290 295 297 297 292 292 296
209 204 227 204 212 238 245 272 302 289 290 300 295 290 293 289 291 291 294 291 292 297
207 213 215 229 215 236 236 324 281 286 285 281 284 289 290 289 288 293 289 294 292 295
202 208 184 190 180 354 319 289 295 279 285 294 289 294 294 289 291 291 291 293 287 294
192 184 146 45 294 298 297 273 277 293 297 292 296 299 294 283 281 288 290 294 289 294
178 192 301 301 280 271 276 294 301 305 309 310 297 299 300 286 279 287 289 290 288 295
285 293 268 262 275 285 293 299 305 302 298 303 300 298 306 292 290 287 286 284 287 290